Year,Month,Day,Hour,Minute,Value (Times are PST for temperature in C)
2015,06,18,00,00,15.00
2015,06,18,00,01,15.00
2015,06,18,00,02,15.00
2015,06,18,00,03,15.00
2015,06,18,00,04,15.00
2015,06,18,00,05,15.00
2015,06,18,00,06,15.00
2015,06,18,00,07,15.00
2015,06,18,00,08,15.00
2015,06,18,00,09,15.00
2015,06,18,00,10,15.00
2015,06,18,00,11,15.00
2015,06,18,00,12,15.00
2015,06,18,00,13,15.00
2015,06,18,00,14,15.00
2015,06,18,00,15,15.00
2015,06,18,00,16,15.00
2015,06,18,00,17,15.00
2015,06,18,00,18,15.00
2015,06,18,00,19,15.00
2015,06,18,00,20,15.00
2015,06,18,00,21,15.00
2015,06,18,00,22,15.00
2015,06,18,00,23,14.90
2015,06,18,00,24,14.90
2015,06,18,00,25,14.90
2015,06,18,00,26,14.90
2015,06,18,00,27,14.90
2015,06,18,00,28,14.90
2015,06,18,00,29,14.90
2015,06,18,00,30,14.90
2015,06,18,00,31,14.90
2015,06,18,00,32,14.90
2015,06,18,00,33,14.90
2015,06,18,00,34,14.90
2015,06,18,00,35,14.90
2015,06,18,00,36,14.80
2015,06,18,00,37,14.80
2015,06,18,00,38,14.90
2015,06,18,00,39,14.90
2015,06,18,00,40,14.90
2015,06,18,00,41,14.90
2015,06,18,00,42,14.90
2015,06,18,00,43,14.90
2015,06,18,00,44,14.90
2015,06,18,00,45,14.90
2015,06,18,00,46,14.90
2015,06,18,00,47,14.90
2015,06,18,00,48,14.90
2015,06,18,00,49,14.90
2015,06,18,00,50,14.80
2015,06,18,00,51,14.80
2015,06,18,00,52,14.80
2015,06,18,00,53,14.80
2015,06,18,00,54,14.80
2015,06,18,00,55,14.80
2015,06,18,00,56,14.80
2015,06,18,00,57,14.80
2015,06,18,00,58,14.80
2015,06,18,00,59,14.80
2015,06,18,01,00,14.80
2015,06,18,01,01,14.80
2015,06,18,01,02,14.80
2015,06,18,01,03,14.80
2015,06,18,01,04,14.80
2015,06,18,01,05,14.80
2015,06,18,01,06,14.80
2015,06,18,01,07,14.80
2015,06,18,01,08,14.80
2015,06,18,01,09,14.80
2015,06,18,01,10,14.80
2015,06,18,01,11,14.70
2015,06,18,01,12,14.70
2015,06,18,01,13,14.70
2015,06,18,01,14,14.70
2015,06,18,01,15,14.70
2015,06,18,01,16,14.70
2015,06,18,01,17,14.70
2015,06,18,01,18,14.60
2015,06,18,01,19,14.60
2015,06,18,01,20,14.60
2015,06,18,01,21,14.60
2015,06,18,01,22,14.60
2015,06,18,01,23,14.60
2015,06,18,01,24,14.60
2015,06,18,01,25,14.60
2015,06,18,01,26,14.60
2015,06,18,01,27,14.60
2015,06,18,01,28,14.50
2015,06,18,01,29,14.50
2015,06,18,01,30,14.50
2015,06,18,01,31,14.50
2015,06,18,01,32,14.50
2015,06,18,01,33,14.50
2015,06,18,01,34,14.50
2015,06,18,01,35,14.40
2015,06,18,01,36,14.40
2015,06,18,01,37,14.40
2015,06,18,01,38,14.40
2015,06,18,01,39,14.40
2015,06,18,01,40,14.30
2015,06,18,01,41,14.30
2015,06,18,01,42,14.30
2015,06,18,01,43,14.30
2015,06,18,01,44,14.30
2015,06,18,01,45,14.30
2015,06,18,01,46,14.30
2015,06,18,01,47,14.30
2015,06,18,01,48,14.30
2015,06,18,01,49,14.20
2015,06,18,01,50,14.20
2015,06,18,01,51,14.20
2015,06,18,01,52,14.20
2015,06,18,01,53,14.20
2015,06,18,01,54,14.20
2015,06,18,01,55,14.20
2015,06,18,01,56,14.20
2015,06,18,01,57,14.20
2015,06,18,01,58,14.20
2015,06,18,01,59,14.20
2015,06,18,02,00,14.20
2015,06,18,02,01,14.20
2015,06,18,02,02,14.20
2015,06,18,02,03,14.20
2015,06,18,02,04,14.20
2015,06,18,02,05,14.20
2015,06,18,02,06,14.20
2015,06,18,02,07,14.20
2015,06,18,02,08,14.20
2015,06,18,02,09,14.20
2015,06,18,02,10,14.20
2015,06,18,02,11,14.20
2015,06,18,02,12,14.20
2015,06,18,02,13,14.20
2015,06,18,02,14,14.20
2015,06,18,02,15,14.20
2015,06,18,02,16,14.20
2015,06,18,02,17,14.10
2015,06,18,02,18,14.10
2015,06,18,02,19,14.10
2015,06,18,02,20,14.10
2015,06,18,02,21,14.10
2015,06,18,02,22,14.10
2015,06,18,02,23,14.10
2015,06,18,02,24,14.10
2015,06,18,02,25,14.10
2015,06,18,02,26,14.00
2015,06,18,02,27,14.00
2015,06,18,02,28,14.00
2015,06,18,02,29,14.00
2015,06,18,02,30,14.00
2015,06,18,02,31,14.00
2015,06,18,02,32,14.00
2015,06,18,02,33,13.90
2015,06,18,02,34,13.90
2015,06,18,02,35,13.90
2015,06,18,02,36,13.90
2015,06,18,02,37,13.90
2015,06,18,02,38,13.80
2015,06,18,02,39,13.80
2015,06,18,02,40,13.80
2015,06,18,02,41,13.80
2015,06,18,02,42,13.80
2015,06,18,02,43,13.80
2015,06,18,02,44,13.80
2015,06,18,02,45,13.80
2015,06,18,02,46,13.80
2015,06,18,02,47,13.70
2015,06,18,02,48,13.70
2015,06,18,02,49,13.70
2015,06,18,02,50,13.70
2015,06,18,02,51,13.70
2015,06,18,02,52,13.70
2015,06,18,02,53,13.70
2015,06,18,02,54,13.70
2015,06,18,02,55,13.70
2015,06,18,02,56,13.70
2015,06,18,02,57,13.70
2015,06,18,02,58,13.70
2015,06,18,02,59,13.70
2015,06,18,03,00,13.70
2015,06,18,03,01,13.70
2015,06,18,03,02,13.70
2015,06,18,03,03,13.60
2015,06,18,03,04,13.60
2015,06,18,03,05,13.60
2015,06,18,03,06,13.60
2015,06,18,03,07,13.60
2015,06,18,03,08,13.60
2015,06,18,03,09,13.60
2015,06,18,03,10,13.60
2015,06,18,03,11,13.50
2015,06,18,03,12,13.50
2015,06,18,03,13,13.50
2015,06,18,03,14,13.50
2015,06,18,03,15,13.50
2015,06,18,03,16,13.50
2015,06,18,03,17,13.50
2015,06,18,03,18,13.50
2015,06,18,03,19,13.50
2015,06,18,03,20,13.50
2015,06,18,03,21,13.50
2015,06,18,03,22,13.50
2015,06,18,03,23,13.50
2015,06,18,03,24,13.50
2015,06,18,03,25,13.50
2015,06,18,03,26,13.50
2015,06,18,03,27,13.50
2015,06,18,03,28,13.50
2015,06,18,03,29,13.50
2015,06,18,03,30,13.50
2015,06,18,03,31,13.50
2015,06,18,03,32,13.40
2015,06,18,03,33,13.40
2015,06,18,03,34,13.40
2015,06,18,03,35,13.40
2015,06,18,03,36,13.40
2015,06,18,03,37,13.40
2015,06,18,03,38,13.40
2015,06,18,03,39,13.40
2015,06,18,03,40,13.40
2015,06,18,03,41,13.40
2015,06,18,03,42,13.40
2015,06,18,03,43,13.40
2015,06,18,03,44,13.40
2015,06,18,03,45,13.40
2015,06,18,03,46,13.40
2015,06,18,03,47,13.40
2015,06,18,03,48,13.40
2015,06,18,03,49,13.40
2015,06,18,03,50,13.40
2015,06,18,03,51,13.40
2015,06,18,03,52,13.40
2015,06,18,03,53,13.40
2015,06,18,03,54,13.40
2015,06,18,03,55,13.40
2015,06,18,03,56,13.40
2015,06,18,03,57,13.40
2015,06,18,03,58,13.40
2015,06,18,03,59,13.40
2015,06,18,04,00,13.40
2015,06,18,04,01,13.40
2015,06,18,04,02,13.40
2015,06,18,04,03,13.40
2015,06,18,04,04,13.40
2015,06,18,04,05,13.40
2015,06,18,04,06,13.40
2015,06,18,04,07,13.40
2015,06,18,04,08,13.40
2015,06,18,04,09,13.40
2015,06,18,04,10,13.40
2015,06,18,04,11,13.40
2015,06,18,04,12,13.40
2015,06,18,04,13,13.40
2015,06,18,04,14,13.50
2015,06,18,04,15,13.50
2015,06,18,04,16,13.50
2015,06,18,04,17,13.50
2015,06,18,04,18,13.50
2015,06,18,04,19,13.50
2015,06,18,04,20,13.50
2015,06,18,04,21,13.50
2015,06,18,04,22,13.50
2015,06,18,04,23,13.40
2015,06,18,04,24,13.40
2015,06,18,04,25,13.40
2015,06,18,04,26,13.40
2015,06,18,04,27,13.40
2015,06,18,04,28,13.40
2015,06,18,04,29,13.40
2015,06,18,04,30,13.40
2015,06,18,04,31,13.40
2015,06,18,04,32,13.40
2015,06,18,04,33,13.40
2015,06,18,04,34,13.40
2015,06,18,04,35,13.40
2015,06,18,04,36,13.40
2015,06,18,04,37,13.40
2015,06,18,04,38,13.40
2015,06,18,04,39,13.40
2015,06,18,04,40,13.40
2015,06,18,04,41,13.40
2015,06,18,04,42,13.40
2015,06,18,04,43,13.40
2015,06,18,04,44,13.40
2015,06,18,04,45,13.40
2015,06,18,04,46,13.40
2015,06,18,04,47,13.40
2015,06,18,04,48,13.40
2015,06,18,04,49,13.30
2015,06,18,04,50,13.30
2015,06,18,04,51,13.30
2015,06,18,04,52,13.30
2015,06,18,04,53,13.40
2015,06,18,04,54,13.40
2015,06,18,04,55,13.40
2015,06,18,04,56,13.40
2015,06,18,04,57,13.40
2015,06,18,04,58,13.40
2015,06,18,04,59,13.50
2015,06,18,05,00,13.50
2015,06,18,05,01,13.50
2015,06,18,05,02,13.50
2015,06,18,05,03,13.50
2015,06,18,05,04,13.50
2015,06,18,05,05,13.50
2015,06,18,05,06,13.50
2015,06,18,05,07,13.50
2015,06,18,05,08,13.50
2015,06,18,05,09,13.40
2015,06,18,05,10,13.40
2015,06,18,05,11,13.40
2015,06,18,05,12,13.40
2015,06,18,05,13,13.40
2015,06,18,05,14,13.30
2015,06,18,05,15,13.30
2015,06,18,05,16,13.30
2015,06,18,05,17,13.30
2015,06,18,05,18,13.30
2015,06,18,05,19,13.30
2015,06,18,05,20,13.30
2015,06,18,05,21,13.30
2015,06,18,05,22,13.30
2015,06,18,05,23,13.30
2015,06,18,05,24,13.30
2015,06,18,05,25,13.30
2015,06,18,05,26,13.30
2015,06,18,05,27,13.30
2015,06,18,05,28,13.20
2015,06,18,05,29,13.20
2015,06,18,05,30,13.20
2015,06,18,05,31,13.20
2015,06,18,05,32,13.20
2015,06,18,05,33,13.20
2015,06,18,05,34,13.20
2015,06,18,05,35,13.20
2015,06,18,05,36,13.20
2015,06,18,05,37,13.20
2015,06,18,05,38,13.20
2015,06,18,05,39,13.20
2015,06,18,05,40,13.20
2015,06,18,05,41,13.20
2015,06,18,05,42,13.20
2015,06,18,05,43,13.20
2015,06,18,05,44,13.20
2015,06,18,05,45,13.20
2015,06,18,05,46,13.30
2015,06,18,05,47,13.30
2015,06,18,05,48,13.30
2015,06,18,05,49,13.30
2015,06,18,05,50,13.30
2015,06,18,05,51,13.30
2015,06,18,05,52,13.30
2015,06,18,05,53,13.30
2015,06,18,05,54,13.30
2015,06,18,05,55,13.30
2015,06,18,05,56,13.30
2015,06,18,05,57,13.30
2015,06,18,05,58,13.30
2015,06,18,05,59,13.30
2015,06,18,06,00,13.30
2015,06,18,06,01,13.30
2015,06,18,06,02,13.30
2015,06,18,06,03,13.30
2015,06,18,06,04,13.30
2015,06,18,06,05,13.30
2015,06,18,06,06,13.30
2015,06,18,06,07,13.30
2015,06,18,06,08,13.40
2015,06,18,06,09,13.40
2015,06,18,06,10,13.40
2015,06,18,06,11,13.40
2015,06,18,06,12,13.50
2015,06,18,06,13,13.50
2015,06,18,06,14,13.50
2015,06,18,06,15,13.60
2015,06,18,06,16,13.60
2015,06,18,06,17,13.60
2015,06,18,06,18,13.60
2015,06,18,06,19,13.60
2015,06,18,06,20,13.60
2015,06,18,06,21,13.60
2015,06,18,06,22,13.60
2015,06,18,06,23,13.60
2015,06,18,06,24,13.60
2015,06,18,06,25,13.60
2015,06,18,06,26,13.60
2015,06,18,06,27,13.60
2015,06,18,06,28,13.60
2015,06,18,06,29,13.60
2015,06,18,06,30,13.60
2015,06,18,06,31,13.60
2015,06,18,06,32,13.60
2015,06,18,06,33,13.60
2015,06,18,06,34,13.60
2015,06,18,06,35,13.60
2015,06,18,06,36,13.60
2015,06,18,06,37,13.60
2015,06,18,06,38,13.50
2015,06,18,06,39,13.50
2015,06,18,06,40,13.50
2015,06,18,06,41,13.50
2015,06,18,06,42,13.60
2015,06,18,06,43,13.60
2015,06,18,06,44,13.60
2015,06,18,06,45,13.60
2015,06,18,06,46,13.60
2015,06,18,06,47,13.60
2015,06,18,06,48,13.70
2015,06,18,06,49,13.70
2015,06,18,06,50,13.70
2015,06,18,06,51,13.70
2015,06,18,06,52,13.70
2015,06,18,06,53,13.80
2015,06,18,06,54,13.80
2015,06,18,06,55,13.80
2015,06,18,06,56,13.90
2015,06,18,06,57,13.90
2015,06,18,06,58,14.00
2015,06,18,06,59,14.00
2015,06,18,07,00,13.90
2015,06,18,07,01,13.90
2015,06,18,07,02,13.90
2015,06,18,07,03,14.00
2015,06,18,07,04,14.00
2015,06,18,07,05,14.00
2015,06,18,07,06,14.00
2015,06,18,07,07,14.10
2015,06,18,07,08,14.10
2015,06,18,07,09,14.20
2015,06,18,07,10,14.20
2015,06,18,07,11,14.20
2015,06,18,07,12,14.20
2015,06,18,07,13,14.20
2015,06,18,07,14,14.30
2015,06,18,07,15,14.30
2015,06,18,07,16,14.40
2015,06,18,07,17,14.40
2015,06,18,07,18,14.40
2015,06,18,07,19,14.40
2015,06,18,07,20,14.40
2015,06,18,07,21,14.40
2015,06,18,07,22,14.40
2015,06,18,07,23,14.40
2015,06,18,07,24,14.50
2015,06,18,07,25,14.50
2015,06,18,07,26,14.50
2015,06,18,07,27,14.60
2015,06,18,07,28,14.60
2015,06,18,07,29,14.60
2015,06,18,07,30,14.60
2015,06,18,07,31,14.60
2015,06,18,07,32,14.70
2015,06,18,07,33,14.70
2015,06,18,07,34,14.70
2015,06,18,07,35,14.80
2015,06,18,07,36,14.80
2015,06,18,07,37,14.80
2015,06,18,07,38,14.90
2015,06,18,07,39,14.90
2015,06,18,07,40,15.00
2015,06,18,07,41,15.10
2015,06,18,07,42,15.20
2015,06,18,07,43,15.20
2015,06,18,07,44,15.30
2015,06,18,07,45,15.30
2015,06,18,07,46,15.40
2015,06,18,07,47,15.50
2015,06,18,07,48,15.50
2015,06,18,07,49,15.60
2015,06,18,07,50,15.70
2015,06,18,07,51,15.80
2015,06,18,07,52,15.90
2015,06,18,07,53,16.10
2015,06,18,07,54,16.20
2015,06,18,07,55,16.30
2015,06,18,07,56,16.40
2015,06,18,07,57,16.60
2015,06,18,07,58,16.70
2015,06,18,07,59,16.80
2015,06,18,08,00,17.00
2015,06,18,08,01,17.10
2015,06,18,08,02,17.20
2015,06,18,08,03,17.30
2015,06,18,08,04,17.50
2015,06,18,08,05,17.50
2015,06,18,08,06,17.70
2015,06,18,08,07,17.70
2015,06,18,08,08,17.80
2015,06,18,08,09,17.90
2015,06,18,08,10,17.90
2015,06,18,08,11,17.90
2015,06,18,08,12,18.00
2015,06,18,08,13,18.10
2015,06,18,08,14,18.10
2015,06,18,08,15,18.20
2015,06,18,08,16,18.20
2015,06,18,08,17,18.30
2015,06,18,08,18,18.40
2015,06,18,08,19,18.50
2015,06,18,08,20,18.60
2015,06,18,08,21,18.70
2015,06,18,08,22,18.80
2015,06,18,08,23,18.90
2015,06,18,08,24,18.90
2015,06,18,08,25,19.00
2015,06,18,08,26,19.10
2015,06,18,08,27,19.10
2015,06,18,08,28,19.20
2015,06,18,08,29,19.30
2015,06,18,08,30,19.40
2015,06,18,08,31,19.40
2015,06,18,08,32,19.40
2015,06,18,08,33,19.40
2015,06,18,08,34,19.40
2015,06,18,08,35,19.40
2015,06,18,08,36,19.40
2015,06,18,08,37,19.30
2015,06,18,08,38,19.20
2015,06,18,08,39,19.30
2015,06,18,08,40,19.30
2015,06,18,08,41,19.40
2015,06,18,08,42,19.40
2015,06,18,08,43,19.50
2015,06,18,08,44,19.50
2015,06,18,08,45,19.60
2015,06,18,08,46,19.70
2015,06,18,08,47,19.70
2015,06,18,08,48,19.70
2015,06,18,08,49,19.70
2015,06,18,08,50,19.70
2015,06,18,08,51,19.60
2015,06,18,08,52,19.60
2015,06,18,08,53,19.50
2015,06,18,08,54,19.50
2015,06,18,08,55,19.50
2015,06,18,08,56,19.40
2015,06,18,08,57,19.30
2015,06,18,08,58,19.30
2015,06,18,08,59,19.30
2015,06,18,09,00,19.30
2015,06,18,09,01,19.40
2015,06,18,09,02,19.50
2015,06,18,09,03,19.50
2015,06,18,09,04,19.50
2015,06,18,09,05,19.50
2015,06,18,09,06,19.40
2015,06,18,09,07,19.20
2015,06,18,09,08,19.10
2015,06,18,09,09,19.10
2015,06,18,09,10,19.10
2015,06,18,09,11,19.10
2015,06,18,09,12,19.10
2015,06,18,09,13,19.10
2015,06,18,09,14,19.10
2015,06,18,09,15,19.10
2015,06,18,09,16,19.10
2015,06,18,09,17,19.10
2015,06,18,09,18,19.10
2015,06,18,09,19,19.10
2015,06,18,09,20,19.20
2015,06,18,09,21,19.20
2015,06,18,09,22,19.20
2015,06,18,09,23,19.10
2015,06,18,09,24,19.10
2015,06,18,09,25,19.10
2015,06,18,09,26,19.10
2015,06,18,09,27,19.10
2015,06,18,09,28,19.10
2015,06,18,09,29,19.20
2015,06,18,09,30,19.30
2015,06,18,09,31,19.30
2015,06,18,09,32,19.30
2015,06,18,09,33,19.30
2015,06,18,09,34,19.40
2015,06,18,09,35,19.40
2015,06,18,09,36,19.40
2015,06,18,09,37,19.40
2015,06,18,09,38,19.40
2015,06,18,09,39,19.50
2015,06,18,09,40,19.60
2015,06,18,09,41,19.60
2015,06,18,09,42,19.70
2015,06,18,09,43,19.80
2015,06,18,09,44,19.80
2015,06,18,09,45,19.80
2015,06,18,09,46,19.80
2015,06,18,09,47,19.90
2015,06,18,09,48,19.90
2015,06,18,09,49,20.10
2015,06,18,09,50,20.10
2015,06,18,09,51,20.10
2015,06,18,09,52,19.90
2015,06,18,09,53,19.90
2015,06,18,09,54,19.90
2015,06,18,09,55,20.00
2015,06,18,09,56,20.10
2015,06,18,09,57,20.10
2015,06,18,09,58,20.10
2015,06,18,09,59,20.10
2015,06,18,10,00,20.00
2015,06,18,10,01,19.90
2015,06,18,10,02,19.90
2015,06,18,10,03,19.90
2015,06,18,10,04,19.90
2015,06,18,10,05,19.80
2015,06,18,10,06,19.80
2015,06,18,10,07,19.80
2015,06,18,10,08,19.90
2015,06,18,10,09,19.90
2015,06,18,10,10,20.00
2015,06,18,10,11,20.00
2015,06,18,10,12,19.90
2015,06,18,10,13,19.90
2015,06,18,10,14,19.80
2015,06,18,10,15,19.80
2015,06,18,10,16,19.70
2015,06,18,10,17,19.70
2015,06,18,10,18,19.80
2015,06,18,10,19,19.80
2015,06,18,10,20,19.80
2015,06,18,10,21,19.80
2015,06,18,10,22,19.90
2015,06,18,10,23,19.90
2015,06,18,10,24,19.90
2015,06,18,10,25,19.90
2015,06,18,10,26,19.80
2015,06,18,10,27,19.80
2015,06,18,10,28,19.80
2015,06,18,10,29,19.80
2015,06,18,10,30,19.70
2015,06,18,10,31,19.70
2015,06,18,10,32,19.60
2015,06,18,10,33,19.60
2015,06,18,10,34,19.60
2015,06,18,10,35,19.50
2015,06,18,10,36,19.50
2015,06,18,10,37,19.50
2015,06,18,10,38,19.60
2015,06,18,10,39,19.60
2015,06,18,10,40,19.70
2015,06,18,10,41,19.70
2015,06,18,10,42,19.80
2015,06,18,10,43,19.80
2015,06,18,10,44,19.80
2015,06,18,10,45,19.80
2015,06,18,10,46,19.70
2015,06,18,10,47,19.60
2015,06,18,10,48,19.60
2015,06,18,10,49,19.60
2015,06,18,10,50,19.50
2015,06,18,10,51,19.50
2015,06,18,10,52,19.50
2015,06,18,10,53,19.50
2015,06,18,10,54,19.50
2015,06,18,10,55,19.50
2015,06,18,10,56,19.40
2015,06,18,10,57,19.30
2015,06,18,10,58,19.30
2015,06,18,10,59,19.40
2015,06,18,11,00,19.40
2015,06,18,11,01,19.50
2015,06,18,11,02,19.40
2015,06,18,11,03,19.40
2015,06,18,11,04,19.40
2015,06,18,11,05,19.40
2015,06,18,11,06,19.40
2015,06,18,11,07,19.40
2015,06,18,11,08,19.30
2015,06,18,11,09,19.30
2015,06,18,11,10,19.30
2015,06,18,11,11,19.20
2015,06,18,11,12,19.10
2015,06,18,11,13,19.10
2015,06,18,11,14,19.10
2015,06,18,11,15,19.10
2015,06,18,11,16,19.10
2015,06,18,11,17,19.00
2015,06,18,11,18,18.90
2015,06,18,11,19,18.80
2015,06,18,11,20,18.80
2015,06,18,11,21,18.70
2015,06,18,11,22,18.70
2015,06,18,11,23,18.80
2015,06,18,11,24,18.90
2015,06,18,11,25,18.90
2015,06,18,11,26,19.00
2015,06,18,11,27,19.10
2015,06,18,11,28,19.20
2015,06,18,11,29,19.40
2015,06,18,11,30,19.30
2015,06,18,11,31,19.30
2015,06,18,11,32,19.20
2015,06,18,11,33,19.20
2015,06,18,11,34,19.20
2015,06,18,11,35,19.30
2015,06,18,11,36,19.30
2015,06,18,11,37,19.40
2015,06,18,11,38,19.50
2015,06,18,11,39,19.50
2015,06,18,11,40,19.60
2015,06,18,11,41,19.70
2015,06,18,11,42,19.80
2015,06,18,11,43,19.90
2015,06,18,11,44,19.90
2015,06,18,11,45,20.00
2015,06,18,11,46,20.10
2015,06,18,11,47,20.20
2015,06,18,11,48,20.30
2015,06,18,11,49,20.40
2015,06,18,11,50,20.50
2015,06,18,11,51,20.50
2015,06,18,11,52,20.50
2015,06,18,11,53,20.50
2015,06,18,11,54,20.50
2015,06,18,11,55,20.50
2015,06,18,11,56,20.50
2015,06,18,11,57,20.50
2015,06,18,11,58,20.60
2015,06,18,11,59,20.70
2015,06,18,12,00,20.70
2015,06,18,12,01,20.70
2015,06,18,12,02,20.70
2015,06,18,12,03,20.60
2015,06,18,12,04,20.60
2015,06,18,12,05,20.50
2015,06,18,12,06,20.60
2015,06,18,12,07,20.70
2015,06,18,12,08,20.90
2015,06,18,12,09,20.90
2015,06,18,12,10,20.90
2015,06,18,12,11,20.90
2015,06,18,12,12,21.00
2015,06,18,12,13,21.10
2015,06,18,12,14,21.20
2015,06,18,12,15,21.20
2015,06,18,12,16,21.20
2015,06,18,12,17,21.20
2015,06,18,12,18,21.30
2015,06,18,12,19,21.30
2015,06,18,12,20,21.30
2015,06,18,12,21,21.40
2015,06,18,12,22,21.50
2015,06,18,12,23,21.60
2015,06,18,12,24,21.70
2015,06,18,12,25,21.80
2015,06,18,12,26,21.90
2015,06,18,12,27,22.00
2015,06,18,12,28,22.00
2015,06,18,12,29,22.20
2015,06,18,12,30,22.20
2015,06,18,12,31,22.10
2015,06,18,12,32,22.00
2015,06,18,12,33,22.00
2015,06,18,12,34,21.90
2015,06,18,12,35,21.90
2015,06,18,12,36,22.10
2015,06,18,12,37,22.10
2015,06,18,12,38,22.10
2015,06,18,12,39,22.10
2015,06,18,12,40,22.30
2015,06,18,12,41,22.30
2015,06,18,12,42,22.20
2015,06,18,12,43,22.10
2015,06,18,12,44,21.90
2015,06,18,12,45,21.90
2015,06,18,12,46,21.80
2015,06,18,12,47,21.90
2015,06,18,12,48,22.00
2015,06,18,12,49,22.00
2015,06,18,12,50,21.90
2015,06,18,12,51,21.80
2015,06,18,12,52,21.80
2015,06,18,12,53,21.70
2015,06,18,12,54,21.80
2015,06,18,12,55,21.90
2015,06,18,12,56,21.90
2015,06,18,12,57,21.90
2015,06,18,12,58,21.70
2015,06,18,12,59,21.70
2015,06,18,13,00,21.60
2015,06,18,13,01,21.60
2015,06,18,13,02,21.60
2015,06,18,13,03,21.60
2015,06,18,13,04,21.70
2015,06,18,13,05,21.70
2015,06,18,13,06,21.80
2015,06,18,13,07,21.90
2015,06,18,13,08,22.00
2015,06,18,13,09,22.10
2015,06,18,13,10,22.20
2015,06,18,13,11,22.30
2015,06,18,13,12,22.20
2015,06,18,13,13,22.20
2015,06,18,13,14,22.30
2015,06,18,13,15,22.30
2015,06,18,13,16,22.40
2015,06,18,13,17,22.50
2015,06,18,13,18,22.70
2015,06,18,13,19,22.90
2015,06,18,13,20,23.10
2015,06,18,13,21,23.30
2015,06,18,13,22,23.40
2015,06,18,13,23,23.60
2015,06,18,13,24,23.60
2015,06,18,13,25,23.50
2015,06,18,13,26,23.30
2015,06,18,13,27,23.30
2015,06,18,13,28,23.30
2015,06,18,13,29,23.30
2015,06,18,13,30,23.40
2015,06,18,13,31,23.40
2015,06,18,13,32,23.40
2015,06,18,13,33,23.40
2015,06,18,13,34,23.60
2015,06,18,13,35,23.60
2015,06,18,13,36,23.60
2015,06,18,13,37,23.60
2015,06,18,13,38,23.70
2015,06,18,13,39,23.70
2015,06,18,13,40,23.70
2015,06,18,13,41,23.70
2015,06,18,13,42,23.70
2015,06,18,13,43,23.50
2015,06,18,13,44,23.40
2015,06,18,13,45,23.50
2015,06,18,13,46,23.50
2015,06,18,13,47,23.60
2015,06,18,13,48,23.60
2015,06,18,13,49,23.70
2015,06,18,13,50,23.60
2015,06,18,13,51,23.50
2015,06,18,13,52,23.40
2015,06,18,13,53,23.30
2015,06,18,13,54,23.20
2015,06,18,13,55,23.00
2015,06,18,13,56,22.90
2015,06,18,13,57,22.90
2015,06,18,13,58,22.90
2015,06,18,13,59,22.90
2015,06,18,14,00,22.90
2015,06,18,14,01,22.80
2015,06,18,14,02,22.80
2015,06,18,14,03,22.90
2015,06,18,14,04,22.90
2015,06,18,14,05,23.00
2015,06,18,14,06,23.20
2015,06,18,14,07,23.30
2015,06,18,14,08,23.40
2015,06,18,14,09,23.50
2015,06,18,14,10,23.60
2015,06,18,14,11,23.70
2015,06,18,14,12,23.70
2015,06,18,14,13,23.70
2015,06,18,14,14,23.70
2015,06,18,14,15,23.70
2015,06,18,14,16,23.60
2015,06,18,14,17,23.60
2015,06,18,14,18,23.40
2015,06,18,14,19,23.40
2015,06,18,14,20,23.40
2015,06,18,14,21,23.40
2015,06,18,14,22,23.30
2015,06,18,14,23,23.30
2015,06,18,14,24,23.20
2015,06,18,14,25,23.20
2015,06,18,14,26,23.20
2015,06,18,14,27,23.20
2015,06,18,14,28,23.20
2015,06,18,14,29,23.00
2015,06,18,14,30,22.90
2015,06,18,14,31,22.70
2015,06,18,14,32,22.50
2015,06,18,14,33,22.40
2015,06,18,14,34,22.30
2015,06,18,14,35,22.30
2015,06,18,14,36,22.20
2015,06,18,14,37,22.10
2015,06,18,14,38,22.00
2015,06,18,14,39,21.90
2015,06,18,14,40,21.80
2015,06,18,14,41,21.80
2015,06,18,14,42,21.70
2015,06,18,14,43,21.60
2015,06,18,14,44,21.60
2015,06,18,14,45,21.40
2015,06,18,14,46,21.30
2015,06,18,14,47,21.10
2015,06,18,14,48,21.00
2015,06,18,14,49,20.90
2015,06,18,14,50,20.80
2015,06,18,14,51,20.70
2015,06,18,14,52,20.50
2015,06,18,14,53,20.50
2015,06,18,14,54,20.50
2015,06,18,14,55,20.50
2015,06,18,14,56,20.40
2015,06,18,14,57,20.40
2015,06,18,14,58,20.40
2015,06,18,14,59,20.30
2015,06,18,15,00,20.20
2015,06,18,15,01,20.20
2015,06,18,15,02,20.20
2015,06,18,15,03,20.10
2015,06,18,15,04,20.10
2015,06,18,15,05,19.90
2015,06,18,15,06,19.90
2015,06,18,15,07,19.90
2015,06,18,15,08,19.90
2015,06,18,15,09,19.90
2015,06,18,15,10,19.90
2015,06,18,15,11,19.90
2015,06,18,15,12,19.90
2015,06,18,15,13,19.90
2015,06,18,15,14,19.90
2015,06,18,15,15,19.90
2015,06,18,15,16,19.90
2015,06,18,15,17,19.80
2015,06,18,15,18,19.80
2015,06,18,15,19,19.70
2015,06,18,15,20,19.70
2015,06,18,15,21,19.70
2015,06,18,15,22,19.60
2015,06,18,15,23,19.60
2015,06,18,15,24,19.50
2015,06,18,15,25,19.50
2015,06,18,15,26,19.40
2015,06,18,15,27,19.50
2015,06,18,15,28,19.40
2015,06,18,15,29,19.40
2015,06,18,15,30,19.40
2015,06,18,15,31,19.30
2015,06,18,15,32,19.30
2015,06,18,15,33,19.30
2015,06,18,15,34,19.30
2015,06,18,15,35,19.30
2015,06,18,15,36,19.30
2015,06,18,15,37,19.40
2015,06,18,15,38,19.40
2015,06,18,15,39,19.50
2015,06,18,15,40,19.60
2015,06,18,15,41,19.60
2015,06,18,15,42,19.50
2015,06,18,15,43,19.50
2015,06,18,15,44,19.50
2015,06,18,15,45,19.50
2015,06,18,15,46,19.50
2015,06,18,15,47,19.40
2015,06,18,15,48,19.40
2015,06,18,15,49,19.30
2015,06,18,15,50,19.20
2015,06,18,15,51,19.20
2015,06,18,15,52,19.20
2015,06,18,15,53,19.20
2015,06,18,15,54,19.10
2015,06,18,15,55,19.10
2015,06,18,15,56,19.10
2015,06,18,15,57,19.10
2015,06,18,15,58,19.10
2015,06,18,15,59,19.10
2015,06,18,16,00,19.10
2015,06,18,16,01,19.00
2015,06,18,16,02,18.90
2015,06,18,16,03,18.90
2015,06,18,16,04,18.90
2015,06,18,16,05,18.90
2015,06,18,16,06,18.90
2015,06,18,16,07,18.80
2015,06,18,16,08,18.70
2015,06,18,16,09,18.60
2015,06,18,16,10,18.60
2015,06,18,16,11,18.50
2015,06,18,16,12,18.50
2015,06,18,16,13,18.50
2015,06,18,16,14,18.30
2015,06,18,16,15,18.20
2015,06,18,16,16,18.20
2015,06,18,16,17,18.20
2015,06,18,16,18,18.10
2015,06,18,16,19,18.00
2015,06,18,16,20,17.90
2015,06,18,16,21,17.80
2015,06,18,16,22,17.80
2015,06,18,16,23,17.70
2015,06,18,16,24,17.60
2015,06,18,16,25,17.60
2015,06,18,16,26,17.50
2015,06,18,16,27,17.50
2015,06,18,16,28,17.50
2015,06,18,16,29,17.40
2015,06,18,16,30,17.30
2015,06,18,16,31,17.30
2015,06,18,16,32,17.30
2015,06,18,16,33,17.30
2015,06,18,16,34,17.20
2015,06,18,16,35,17.10
2015,06,18,16,36,17.00
2015,06,18,16,37,16.90
2015,06,18,16,38,16.90
2015,06,18,16,39,16.80
2015,06,18,16,40,16.70
2015,06,18,16,41,16.70
2015,06,18,16,42,16.60
2015,06,18,16,43,16.50
2015,06,18,16,44,16.40
2015,06,18,16,45,16.40
2015,06,18,16,46,16.40
2015,06,18,16,47,16.40
2015,06,18,16,48,16.40
2015,06,18,16,49,16.40
2015,06,18,16,50,16.40
2015,06,18,16,51,16.40
2015,06,18,16,52,16.40
2015,06,18,16,53,16.30
2015,06,18,16,54,16.30
2015,06,18,16,55,16.30
2015,06,18,16,56,16.30
2015,06,18,16,57,16.30
2015,06,18,16,58,16.30
2015,06,18,16,59,16.30
2015,06,18,17,00,16.30
2015,06,18,17,01,16.30
2015,06,18,17,02,16.30
2015,06,18,17,03,16.30
2015,06,18,17,04,16.30
2015,06,18,17,05,16.30
2015,06,18,17,06,16.30
2015,06,18,17,07,16.30
2015,06,18,17,08,16.30
2015,06,18,17,09,16.30
2015,06,18,17,10,16.30
2015,06,18,17,11,16.30
2015,06,18,17,12,16.40
2015,06,18,17,13,16.40
2015,06,18,17,14,16.40
2015,06,18,17,15,16.40
2015,06,18,17,16,16.40
2015,06,18,17,17,16.40
2015,06,18,17,18,16.40
2015,06,18,17,19,16.40